Weather History for KGKJ - October, 2012

Change the Weather History Date:

Sunday, October 7, 2012

  Actual Average Record
Temperature  
Mean Temperature 42 °F -  
Max Temperature 46 °F 63 °F 83 °F (1963)
Min Temperature 39 °F 42 °F 26 °F (1954)
Degree Days  
Heating Degree Days 22    
Moisture  
Dew Point 38 °F    
Average Humidity 86    
Maximum Humidity 96    
Minimum Humidity 74    
Precipitation  
Precipitation 0.21 in - - ()
Sea Level Pressure  
Sea Level Pressure 30.09 in    
Wind  
Wind Speed 5 mph (WSW)    
Max Wind Speed 12 mph    
Max Gust Speed 20 mph    
Visibility 9 miles    
Events Rain    
Averages and records for this station are not official NWS values.
T = Trace of Precipitation, MM = Missing Value Source: NWS Daily Summary

Daily Weather History Graph

Daily Weather History Graph

Search for Another Location

Airport or City:

Trip Planner

Search our weather history database for the weather conditions in past years. The results will help you decide how hot, cold, wet, or windy it might be!

Date:

Astronomy

Oct. 07, 2012 Rise Set
Actual Time 7:24 AM EDT 6:51 PM EDT
Civil Twilight 6:56 AM EDT 7:19 PM EDT
Nautical Twilight 6:24 AM EDT 7:51 PM EDT
Astronomical Twilight 5:52 AM EDT 8:23 PM EDT
Moon 11:58 PM EDT (10/7) 2:04 PM EDT (10/7)
Length of Visible Light 12h 22m
Length of Day
11h 27m
Waning Gibbous, 56% of the Moon is Illuminated
Oct 7
Waning Gibbous
Oct 8
Last Quarter
Oct 15
New
Oct 21
First Quarter
Oct 29
Full

Hourly Weather History & Observations

Time (EDT) Temp. Windchill Dew Point Humidity Pressure Visibility Wind Dir Wind Speed Gust Speed Precip Events Conditions
12:53 AM 45.0 °F 43.5 °F 37.0 °F 74% 30.08 in 10.0 mi SSW 3.5 mph - N/A   Overcast
1:53 AM 44.1 °F 41.5 °F 37.0 °F 76% 30.08 in 10.0 mi SSW 4.6 mph - N/A   Clear
2:53 AM 43.0 °F 40.3 °F 37.0 °F 80% 30.09 in 10.0 mi SW 4.6 mph - N/A   Mostly Cloudy
3:53 AM 43.0 °F 40.3 °F 36.0 °F 76% 30.06 in 10.0 mi West 4.6 mph - N/A   Overcast
4:53 AM 43.0 °F 41.3 °F 37.0 °F 80% 30.06 in 10.0 mi West 3.5 mph - N/A   Clear
5:53 AM 42.1 °F 40.2 °F 37.0 °F 82% 30.06 in 10.0 mi West 3.5 mph - N/A   Clear
6:53 AM 42.1 °F - 39.0 °F 89% 30.06 in 10.0 mi Calm Calm - N/A   Partly Cloudy
7:53 AM 41.0 °F 38.0 °F 37.9 °F 89% 30.08 in 10.0 mi SSW 4.6 mph - N/A   Clear
8:53 AM 43.0 °F 40.3 °F 37.9 °F 82% 30.08 in 10.0 mi SSW 4.6 mph - N/A   Mostly Cloudy
9:53 AM 44.1 °F 41.5 °F 37.9 °F 79% 30.09 in 10.0 mi SW 4.6 mph - N/A   Overcast
10:16 AM 44.6 °F 40.7 °F 39.2 °F 81% 30.07 in 10.0 mi SSW 6.9 mph - N/A   Overcast
10:38 AM 44.6 °F 42.2 °F 39.2 °F 81% 30.07 in 10.0 mi SSW 4.6 mph - N/A   Overcast
10:53 AM 45.0 °F 41.8 °F 39.0 °F 80% 30.09 in 10.0 mi SW 5.8 mph - N/A   Overcast
11:02 AM 44.6 °F 42.2 °F 39.2 °F 81% 30.07 in 10.0 mi SW 4.6 mph - N/A   Overcast
11:18 AM 44.6 °F 42.2 °F 39.2 °F 81% 30.07 in 10.0 mi WSW 4.6 mph - N/A   Overcast
11:53 AM 45.0 °F - 41.0 °F 86% 30.08 in 10.0 mi Calm Calm - 0.01 in Rain Light Rain
12:01 PM 44.6 °F 43.1 °F 42.8 °F 93% 30.06 in 9.0 mi SW 3.5 mph - 0.00 in Rain Light Rain
12:53 PM 46.0 °F 41.9 °F 41.0 °F 83% 30.08 in 10.0 mi WSW 8.1 mph - 0.00 in   Overcast
1:03 PM 44.6 °F 40.7 °F 41.0 °F 87% 30.06 in 10.0 mi West 6.9 mph - 0.00 in Rain Light Rain
1:49 PM 42.8 °F 37.0 °F 39.2 °F 87% 30.06 in 4.0 mi West 10.4 mph - 0.05 in Rain Rain
1:53 PM 43.0 °F 38.8 °F 39.0 °F 86% 30.08 in 4.0 mi West 6.9 mph - 0.06 in Rain Rain
2:48 PM 44.6 °F 40.7 °F 39.2 °F 81% 30.05 in 8.0 mi West 6.9 mph - 0.04 in Rain Light Rain
2:53 PM 43.0 °F 38.2 °F 39.9 °F 89% 30.08 in 7.0 mi SW 8.1 mph - 0.04 in Rain Light Rain
3:00 PM 42.8 °F 36.6 °F 39.2 °F 87% 30.06 in 7.0 mi NW 11.5 mph 19.6 mph 0.01 in Rain Light Rain
3:20 PM 41.0 °F 36.4 °F 37.4 °F 87% 30.06 in 6.0 mi WNW 6.9 mph - 0.03 in Rain Light Rain
3:41 PM 42.8 °F 36.6 °F 37.4 °F 81% 30.06 in 7.0 mi West 11.5 mph - 0.05 in Rain Light Rain
3:53 PM 42.1 °F 37.7 °F 37.9 °F 85% 30.09 in 10.0 mi WNW 6.9 mph - 0.06 in Rain Light Rain
4:11 PM 41.0 °F 35.2 °F 37.4 °F 87% 30.08 in 6.0 mi West 9.2 mph - 0.02 in Rain Light Rain
4:24 PM 41.0 °F 34.7 °F 37.4 °F 87% 30.08 in 10.0 mi WNW 10.4 mph - 0.02 in Rain Light Rain
4:42 PM 41.0 °F 37.1 °F 37.4 °F 87% 30.08 in 10.0 mi West 5.8 mph - 0.03 in Rain Light Rain
4:51 PM 41.0 °F 35.2 °F 37.4 °F 87% 30.08 in 10.0 mi West 9.2 mph - 0.04 in Rain Light Rain
4:53 PM 41.0 °F 35.8 °F 37.0 °F 86% 30.11 in 9.0 mi West 8.1 mph - 0.04 in Rain Light Rain
5:06 PM 41.0 °F 38.0 °F 37.4 °F 87% 30.09 in 10.0 mi West 4.6 mph - 0.00 in Rain Light Rain
5:53 PM 42.1 °F 40.2 °F 39.0 °F 89% 30.12 in 10.0 mi SW 3.5 mph - 0.00 in   Mostly Cloudy
6:47 PM 41.0 °F 38.0 °F 39.2 °F 93% 30.11 in 10.0 mi SW 4.6 mph - N/A   Mostly Cloudy
6:48 PM 42.8 °F 40.1 °F 39.2 °F 87% 30.11 in 10.0 mi SW 4.6 mph - N/A   Mostly Cloudy
6:53 PM 41.0 °F 38.0 °F 39.0 °F 93% 30.13 in 10.0 mi SW 4.6 mph - N/A   Mostly Cloudy
7:15 PM 39.2 °F 34.2 °F 37.4 °F 93% 30.10 in 10.0 mi SSW 6.9 mph - N/A   Partly Cloudy
7:53 PM 39.9 °F 35.8 °F 37.0 °F 89% 30.14 in 10.0 mi SW 5.8 mph - N/A   Mostly Cloudy
8:53 PM 39.0 °F 34.0 °F 37.0 °F 93% 30.15 in 10.0 mi SSW 6.9 mph - N/A   Mostly Cloudy
9:53 PM 39.9 °F 37.8 °F 37.9 °F 93% 30.16 in 10.0 mi SW 3.5 mph - N/A   Overcast
10:53 PM 39.0 °F 34.8 °F 37.9 °F 96% 30.17 in 10.0 mi SSW 5.8 mph - N/A   Overcast
11:53 PM 39.9 °F 36.7 °F 37.0 °F 89% 30.17 in 10.0 mi South 4.6 mph - N/A   Overcast